National Weather Service United States Department of Commerce
Data are updated at 11 and 26 past the hour. Coastal data is often not avaialable until 26 past the hour.
Check the Preious Version of the data HERE if data are missing.  

NYCBOYDAT LOC
TTAA00 KOKX 181028

Coastal Waters Roundup...For Informational Purposes Only
National Weather Service New York NY
500 AM EST SUN FEB 18 2018

...Ocean Waters...
  
STATION/POSITION TIME  TEMP    WIND        PRES    WAVE   WND WV SWELL
                       AIR SEA DIR/SP/G            HT/PER HT/PER HT/PER/DIR
                 (UTC) (F)     (DEG/KT/KT) (MB)    (FT/S) (FT/S) (FT/S/D)
NY Harb Entrance 0950   36 39  290/ 19/ 21 1016.3    2/ 6   2/ 6   2/100/ 6
20 S Fire Is NY  0950   37 42  280/ 21/ 25 1015.7    3/ 6   2/ 6   2/130/ 7
25 SE Block IS   0943      38                N/A     4/ 6   3/ 6
15 E Barnegat NJ 1000      41                N/A     3/ 4   3/ 4
Texas Tower #4   0950   41 46  300/ 27/ 33 1014.4    6/ 5   7/ 5   2/140/ 8

...Long Island South Shore (WeatherFlow - Wind is MPH)...
  
CITY           SKY/WX    TMP DP  RH WIND       PRES   REMARKS
Breezy Point     N/A     34 N/A N/A W13G21      N/A                   
Jones Beach CG   N/A     34 N/A N/A W17         N/A                   
Amityville       N/A     34 N/A N/A W6          N/A                   
Boat Channel     N/A     34 N/A N/A W16         N/A                   
Fire Island CG   N/A     34 N/A N/A W12         N/A                   
Pt O Woods       N/A    N/A N/A N/A NW18        N/A                   
Blue Pt          N/A     32 N/A N/A W8          N/A                   
East Moriches    N/A    N/A N/A N/A NW18        N/A                   
Shinnecock Inl   N/A     34 N/A N/A W18         N/A                   
Mecox Bay        N/A     34 N/A N/A W14G20      N/A                   
Napeaque         N/A    N/A N/A N/A NW12G22     N/A                   

...Long Island Sound...
  
STATION/POSITION TIME  TEMP    WIND        PRES    WAVE   WND WV SWELL
                       AIR SEA DIR/SP/G            HT/PER HT/PER HT/PER/DIR
                 (UTC) (F)     (DEG/KT/KT) (MB)    (FT/S) (FT/S) (FT/S/D)
Kings Point      1000   35 35  320/  7/  8 1017.9
Execution Rocks  NOT AVBL
Western LI Sound NOT AVBL
Bridgeport NOS   0954   33 36  300/  3/  7 1015.5
New Haven NOS    1000   32 38  330/  5/  6 1015.9
Central LI Sound 1015   34     290/ 17/ 21   N/A     1
Ledge Light      1010   34     290/ 17/ 21 1017.4

...Long Island Sound Coastal  (WeatherFlow - Wind is MPH)...
  
CITY           SKY/WX    TMP DP  RH WIND       PRES   REMARKS
Larchmont        N/A     34 N/A N/A SW10        N/A                   
Norwalk          N/A    N/A N/A N/A W9          N/A                   
Bayville         N/A     36 N/A N/A W15         N/A                   
Eatons Neck      N/A     32 N/A N/A W17         N/A                   
Mt Sinai         N/A    N/A N/A N/A W6          N/A                   
New Haven Harb   N/A     32 N/A N/A CALM        N/A                   
Hammonasset      N/A     32 N/A N/A W2          N/A                   
USCG Academy     N/A     34 N/A N/A NW7G14      N/A                   
Gull Island      N/A     34 N/A N/A W24         N/A                   
Fishers Island   N/A     34 N/A N/A W14G21      N/A                   

...Block Island Sound (WeatherFlow - Wind is MPH)...
  
CITY           SKY/WX    TMP DP  RH WIND       PRES   REMARKS
Block Island     N/A     36 N/A N/A W28         N/A                   
Ninigret Pond    N/A     34 N/A N/A W9          N/A                   
Point Judith     N/A     36 N/A N/A W18         N/A                   

...NY Harbor...
  
STATION/POSITION TIME  TEMP    WIND        PRES    WAVE   WND WV SWELL
                       AIR SEA DIR/SP/G            HT/PER HT/PER HT/PER/DIR
                 (UTC) (F)     (DEG/KT/KT) (MB)    (FT/S) (FT/S) (FT/S/D)
Bergen Point     1000   34 39              1017.4
Robbins Reef     1000   35     280/ 14/ 16 1018.0
Sandy Hook       1000   35 40  280/ 16/ 21 1018.2

...NY Harbor (WeatherFlow - Wind is MPH)...
  
CITY           SKY/WX    TMP DP  RH WIND       PRES   REMARKS
Bayonne          N/A     32 N/A N/A W9          N/A                   
Perth Amboy      N/A     34 N/A N/A W14         N/A                   
Sandy Hook       N/A    N/A N/A N/A W20         N/A                   

...New England Waters...
  
STATION/POSITION TIME  TEMP    WIND        PRES    WAVE   WND WV SWELL
                       AIR SEA DIR/SP/G            HT/PER HT/PER HT/PER/DIR
                 (UTC) (F)     (DEG/KT/KT) (MB)    (FT/S) (FT/S) (FT/S/D)
Buzzards Bay MA  1000   34     300/ 11/ 13 1012.1
Nantucket Shoals 0950   44 44              1005.5    6/ 6
Nantucket Sound  0950   40 38  350/  2/  2 1009.8    2/ 6   2/ 4   2/ 90/ 6
Boston Harbor    0950   36 39  300/  8/ 10 1011.4    3/ 7   2/ 4   3/120/ 7
Mass Bay         0904   37 39              1010.4    5/ 6
Jeffrey's Ledge  1006      41                N/A     7/ 7   7/ 7
Isle of Shoals   1000   32     360/ 12/ 13 1012.6
Mnt Desert Rock  1000   36     110/ 25/ 28 1013.0
Matinicus Rock M 1000   36     160/ 13/ 16 1012.6
Gulf of Maine    NOT AVBL
12 SE Portland M 0950   33 39   CALM  /  2 1013.4    5/ 6   2/ 4   5/160/ 6

...Southern NJ Coast...
  
STATION/POSITION TIME  TEMP    WIND        PRES    WAVE   WND WV SWELL
                       AIR SEA DIR/SP/G            HT/PER HT/PER HT/PER/DIR
                 (UTC) (F)     (DEG/KT/KT) (MB)    (FT/S) (FT/S) (FT/S/D)
Delaware Bay     0950   39 42  270/ 16/ 19 1019.4    3/ 3   3/ 3   2/ 90/ 7

...Mid-Atlantic and Southeast Coast... 
  
STATION/POSITION TIME  TEMP    WIND        PRES    WAVE   WND WV SWELL
                       AIR SEA DIR/SP/G            HT/PER HT/PER HT/PER/DIR
                 (UTC) (F)     (DEG/KT/KT) (MB)    (FT/S) (FT/S) (FT/S/D)
Thomas Point MD  1000   36 37  300/  6/  7   N/A
Diamond Shoals N 1010   54 69  320/ 10/ 14 1020.5
Cape Lookout NC  1000          340/ 11/ 13 1020.8
Frying Pan Shls  1010   65 65  290/ 14/ 17 1020.3
Duck Pier NC     1000   45 44  300/ 12/ 16 1020.3
Folly Island SC  1000   60     240/  5/  7 1021.0
St Augustine FL  1000   62 58  310/  2/  2 1021.9
64 E VA Beach VA 0950   45 50  300/ 17/ 19 1019.7    5/ 5   5/ 5   2/110/ 8
Edisto SC        1010   68 68  250/ 16/ 19 1020.3
Grays Reef GA    0950   60 57  210/  8/ 10 1020.6    2/10          2/ 80/10
20 E Cape Canave 1010   74 74   60/  4/  4 1021.8
South Hatteras N 0950   73 72  250/ 16/ 17 1021.0    5/10   5/ 6   3/110/10
Georges Bank     0950   29 42              1029.0   10/10
$$

 

Updated:  1/4/16